www.pogodaiklimat.ru

Погода и климат >> Архив погоды >> Россия >> Рязанская область >> Елатьма


АРХИВ ПОГОДЫ в Елатьме

Время (UTC), дата Ветер
(напр.,м/с)
 
Видим.   Явления Облачность Т
(С)
Тd
(С)
f
(%)
Тe
(С)
Тes
(С)
Комфортность P
(гПа)
Po
(гПа)
Тmin
(С)
Tmax
(С)
R
(мм)
R24
(мм)
S
(см)
15 15.08 ЮЗ 2 10 км 10/3 600 м
[Sc Ci fib]
+31.1 +11.5 30 +31 +32 жарко 1008.9 993.7 +32.8
18 15.08 СВ 2 10 км 5/5 600 м
[Sc]
+23.8 +18.3 71 +28 +28 душно 1011.2 995.7
21 15.08 СВ 2 10 км 3/3 600 м
[Sc]
+19.0 +14.8 77 +21 +21 комфорт 1013.0 997.1
00 16.08 СВ 2 10 км 10/10 600 м
[Sc]
+17.1 +12.9 76 +17 +17 1012.6 996.7
03 16.08 В 2 4000 м гроза, ливневой дождь 10/10 300 м
[Cb cap]
+15.3 +13.1 87 +15 +15 1012.8 996.7 +15.3 0.5
06 16.08 В 2 4000 м слаб. ливневой дождь {гроза} 10/10 300 м
[Cb cap]
+15.7 +14.9 95 +16 +16 1013.3 997.3 +14.9
09 16.08 ЮВ 2 10 км в посл. час ливневой дождь 10/10 300 м
[Cb cap]
+17.8 +16.9 94 +18 +18 1012.8 996.9
12 16.08 В 1 4000 м слаб. ливневой дождь 10/10 300 м
[Cb cap]
+18.2 +17.3 94 +20 +20 1012.8 997.0
15 16.08 СВ 1 4000 м дымка {ливн. осадки} 10/10 300 м
[Frnb]
+18.5 +17.5 94 +20 +20 1012.4 996.6 +18.5 16
18 16.08 СВ 2 1000 м дымка {ливн. осадки} 10/10 600 м
[Sc]
+17.2 +16.3 94 +18 +18 1012.7 996.8
21 16.08 СВ 2 500 м туман ?/? +16.7 +15.9 95 +17 +17 1012.8 996.9
00 17.08 СВ 2 500 м туман ?/? +16.9 +16.1 95 +17 +17 1012.4 996.5
03 17.08 В 1 500 м туман ?/? +17.0 +16.2 95 +18 +18 1012.6 996.6 +16.7 0.5
06 17.08 В 3 10 км {туман} 10/10 600 м
[Sc]
+19.2 +16.9 87 +21 +21 комфорт 1011.8 996.0
09 17.08 В 1 10 км в посл. час ливневой дождь 10/10 300 м
[Cb cap]
+19.0 +17.6 92 +22 +22 комфорт 1013.0 997.2
12 17.08 В 2 4000 м ливневой дождь 10/10 300 м
[Cb cap]
+19.3 +18.1 93 +22 +22 комфорт 1012.6 996.8
15 17.08 В 3 4000 м слаб. ливневой дождь 10/10 300 м
[Cb cap]
+18.4 +17.1 92 +19 +19 1011.6 995.8 +19.9 15
18 17.08 В 2 4000 м слаб. ливневой дождь 10/10 300 м
[Cb cap]
+18.3 +17.2 93 +19 +19 1011.5 995.7
21 17.08 В 1 4000 м слаб. ливневой дождь 10/10 300 м
[Cb cap]
+18.3 +17.4 94 +20 +20 1010.4 994.6
00 18.08 В 1 4000 м дымка {ливн. осадки} 10/10 300 м
[Cb cap]
+18.0 +16.5 91 +19 +19 1009.0 993.2
03 18.08 В 1 4000 м дымка 10/0
[Ac trans Cs]
+16.9 +15.4 91 +18 +18 1008.8 993.0 +16.9 2
06 18.08 Ю 1 10 км 10/5 600 м
[Sc Ac trans Cs]
+21.4 +17.2 77 +25 +27 комфорт 1009.4 993.8
09 18.08 ЮЗ 2 10 км 10/8 600 м
[Cu Sc Ac trans Cs]
+24.3 +16.8 63 +28 +29 душно 1010.1 994.6
12 18.08 ЮЗ 3 10 км 10/8 600 м
[Cu Sc Ci fib]
+22.6 +16.1 67 +27 +28 душно 1012.2 996.5
15 18.08 штиль 0 10 км 10/5 300 м
[Cb cap Cs]
+22.7 +15.8 65 +27 +27 душно 1012.6 997.0 +24.7
18 18.08 В 1 10 км 10/5 600 м
[Cb cap Cs]
+18.5 +16.0 85 +20 +20 1013.8 997.9
21 18.08 штиль 0 4000 м дымка 10/1 600 м
[Sc Ci fib]
+16.1 +15.0 93 +16 +16 1013.7 997.7
00 19.08 З 2 4000 м дымка 10/10 300 м
[Cb cap]
+17.3 +16.0 92 +18 +18 1014.3 998.4
03 19.08 З 1 4000 м дымка {ливн. осадки} 10/3 600 м
[Sc Ac trans Ci fib]
+14.6 +13.5 93 +15 +15 1015.3 999.2 +14.6 0.3
06 19.08 З 2 10 км 10/3 600 м
[Sc Ci fib]
+19.9 +13.9 68 +22 +26 комфорт 1016.3 1000.4
09 19.08 З 2 10 км 10/10 600 м
[Sc]
+21.9 +13.9 60 +25 +25 комфорт 1017.0 1001.2
12 19.08 З 2 10 км 10/10 300 м
[Cb cap]
+20.8 +14.5 67 +24 +24 комфорт 1017.8 1002.0
15 19.08 СЗ 2 10 км 10/10 600 м
[Sc]
+20.2 +14.9 72 +23 +23 комфорт 1018.9 1003.0 +22.0
18 19.08 СЗ 1 10 км 10/10 600 м
[Sc]
+18.4 +15.4 83 +20 +20 1019.8 1003.8
21 19.08 СЗ 1 10 км 10/6 600 м
[Sc Ci fib]
+16.5 +14.4 87 +17 +17 1020.7 1004.6
00 20.08 З 1 4000 м дымка 10/0
[Ci fib]
+13.8 +12.9 94 +14 +14 1021.2 1005.0
03 20.08 З 1 200 м туман ?/? +13.6 +12.8 95 +14 +14 1022.3 1006.0 +12.8
06 20.08 З 1 10 км {туман} 3/3 600 м
[Cu med, cong]
+20.7 +15.2 71 +25 +30 комфорт 1022.6 1006.8
09 20.08 С 1 10 км 8/8 600 м
[Cu med, cong]
+23.2 +14.4 58 +27 +30 душно 1022.4 1006.6
12 20.08 С 1 10 км 6/6 600 м
[Cu hum]
+24.4 +13.8 52 +27 +30 жарко 1021.9 1006.3
15 20.08 З 1 10 км 5/3 600 м
[Cu hum Ci fib]
+24.0 +13.7 53 +26 +27 жарко 1021.8 1006.1 +26.1
18 20.08 З 1 10 км ясно +16.2 +14.8 91 +17 +17 1023.1 1007.0
21 20.08 штиль 0 4000 м дымка ясно +14.5 +13.6 94 +14 +14 1023.5 1007.3
00 21.08 З 1 4000 м дымка ясно +13.3 +12.5 95 +13 +13 1024.1 1007.8
03 21.08 Ю 1 4000 м дымка 8/8 600 м
[Sc]
+15.0 +14.2 95 +15 +16 1024.0 1007.7 +13.2
06 21.08 З 2 10 км 10/0
[Cc]
+23.6 +16.6 65 +27 +32 жарко 1024.1 1008.3
09 21.08 С 1 10 км 10/4 600 м
[Cu med, cong Ci fib]
+27.4 +16.5 51 +31 +37 душно 1023.5 1008.0
12 21.08 С 1 10 км 10/5 600 м
[Cu med, cong Ci fib]
+28.4 +15.7 46 +31 +35 душно 1022.9 1007.5
15 21.08 штиль 0 10 км 10/3 600 м
[Cu hum Ci fib]
+27.0 +16.8 54 +31 +31 душно 1022.6 1007.0 +28.8
18 21.08 СВ 1 10 км 10/3 600 м
[Sc Ci fib]
+21.5 +17.2 77 +26 +26 душно 1023.0 1007.2
21 21.08 В 1 10 км 10/0
[Ci fib]
+18.8 +17.1 90 +21 +21 комфорт 1023.1 1007.1
00 22.08 ЮВ 1 10 км 10/0
[Ci fib]
+18.3 +16.8 91 +20 +20 1022.5 1006.5
03 22.08 штиль 0 2000 м дымка 10/0 600 м
[Ci fib]
+17.0 +16.1 94 +17 +17 1022.4 1006.3 +15.8
06 22.08 ЮЗ 2 10 км 10/0
[Ci fib]
+24.8 +17.1 62 +29 +33 душно 1021.7 1006.0
09 22.08 ЮЗ 2 10 км 10/5 600 м
[Cu med, cong Ci fib]
+28.7 +15.7 45 +32 +36 душно 1020.4 1005.0

 

Местоположение метеостанции Елатьма (Рязанская область, Россия): широта 54.95 долгота 41.77 высота над уровнем моря 136 м.

В архиве по умолчанию представлена погода в Елатьме за последнюю неделю. Архивные данные за месяц целиком и за предыдущие месяцы, начиная с января 2011 года, Вы можете получить, выбрав интересующий диапазон дат из раскрывающегося списка и нажав кнопку "Ввод!".


*Определитесь, кто Вы:
робот инопланетянин человек

Внимание! Время в таблицах - всемирное. Для получения местного времени необходимо прибавить поправку, которая равна 3 ч.

Смотрите также архив погоды в соседних городах и на ближайших метеорологических станциях:

Погода в Выксе (Нижегородская область, Россия) (48 км)
Погода в Сасово (Рязанская область, Россия) (68 км)
Погода в Муроме (Владимирская область, Россия) (74 км)
Погода в Туме (Рязанская область, Россия) (80 км)
Погода в Шилово (Рязанская область, Россия) (92 км)
Погода в Темникове (Мордовия, Россия) (100 км)
Погода в Гусь-Хрустальный (Владимирская область, Россия) (101 км)
Погода в Черустях (Московская область, Россия) (129 км)
Погода в Арзамасе (Нижегородская область, Россия) (136 км)
Погода в Торбеево (Мордовия, Россия) (136 км)

Пояснения к столбцам:

Ветер - указаны скорость ветра в м/с - средняя за 10 мин, порывы в срок и между сроками (в фигурных скобках) и направление, откуда дует ветер: С - северный, СВ - северо-восточный, В - восточный, ЮВ - юго-восточный, Ю - южный, ЮЗ - юго-западный, З - западный, СЗ - северо-западный.
Видимость - горизонтальная дальность видимости в метрах или километрах. При видимости от 1 до 10 км при отсутствии осадков обычно наблюдается дымка, при ухудшении видимости до 1 км и менее - туман. В сухую погоду видимость может ухудшаться дымом, пылью или мглою.
Явления - указаны атмосферные явления, наблюдавшиеся в срок или в последний час перед сроком; фигурными скобками обозначены явления, наблюдавшиеся между сроками (за 1-3 часа до срока); квадратными скобками обозначены град или гололедные отложения с указанием их диаметра в мм.
Облачность - указаны через наклонную черту общая и нижняя облачность в баллах и высота нижней границы облаков в метрах; квадратными скобками обозначены формы облаков: Ci - перистые, Cs - перисто-слоистые, Cc - перисто-кучевые, Ac - высококучевые, As - высокослоистые, Sc - слоисто-кучевые, Ns - слоисто-дождевые, Cu - кучевые, Cb - кучево-дождевые. Подробнее классификацию облаков см. в Атласе облаков (PDF).
T - Температура воздуха - температура, измеренная на высоте 2 м над землей.
Td - Температура точки росы - температура, при понижении до которой содержащийся в воздухе водяной пар достигнет насыщения.
f - Относительная влажность воздуха - влажноcть воздуха, измеренная на высоте 2 м над землей.
Te - Эффективная температура - температура, которую ощущает одетый по сезону человек в тени. Характеристика душности погоды. При расчете учитывается влияние влажности воздуха и скорости ветра на теплоощущения человека.
Tes - Эффективная температура на солнце - температура, которую ощущает человек, с поправкой на солнечный нагрев. Характеристика знойности погоды. Зависит от высоты солнца над горизонтом, облачности и скорости ветра. Ночью, в пасмурную погоду, а также при ветре 12 м/с и более поправка равна нулю.
P - Атмосферное давление - приведенное к уровню моря атмосферное давление.
Po - Атмосферное давление - измеренное на уровне метеостанции атмосферное давление.
Tmin - Минимальная температура - минимум температуры воздуха на высоте 2 м над землей.
Tmax - Максимальная температура - максимум температуры воздуха на высоте 2 м над землей.
R - Количество осадков - Количество выпавших осадков за период времени, мм. При наведении курсора мыши на число - период времени, за который выпало указанное количество осадков.
R24 - Количество осадков - Количество выпавших осадков за 24 часа, мм.
S - Снежный покров - Высота снежного покрова, см. При наведении курсора мыши на число - состояние снежного покрова и степень покрытия местности в баллах.